Location: Boussac
(44.2782°N, 2.3665°E)
Time: 10:30:14
(UTC+00:00)

Okean 1-7 Rocket - Pass Details

Date: 15 May 2026
Orbit: 611 x 641 km, 82.5° (Epoch: 6 June)

Event Time Altitude Azimuth Distance (km) Brightness Sun altitude
Rises 21:42:28 0° 349° (NNW) 2,927 8.3 -20.6°
Reaches altitude 10° 21:44:42 10° 347° (NNW) 2,020 7.2 -20.8°
Maximum altitude 21:49:09 69° 265° (W) 683 3.7 -21.2°
Enters shadow 21:50:20 47° 200° (SSW) 848 3.9 -21.3°
